BAW15K EGLL-KJFK

Flight info

Callsign BAW15K
Flight time 7h 6m
Altitude 38000
Route ULTIB T420 TNT UL28 PENIL M144 BAGSO DCT RINUS DCT MALOT/M082F390 NATE RIKAL/N0473F400 N572A TOPPS DCT ENE PARCH4
Aircraft B772/H-SDE2E3FGHIJ5LORVWXY/LB1D1

Departure

Time 2026-05-05 12:02
Airport London Heathrow Airport (EGLL)

Arrival

Time 2026-05-05 19:09
Airport John F. Kennedy International Airport (KJFK)
Time Latitude Longitude Altitude Speed Heading
2026-05-05 11:35 51.47133 -0.48023 95 ft 0 kts 270°
2026-05-05 11:53 51.47133 -0.47988 94 ft 4 kts 270°
2026-05-05 11:54 51.47133 -0.47945 93 ft 4 kts 270°
2026-05-05 11:54 51.47134 -0.47910 92 ft 4 kts 261°
2026-05-05 11:54 51.47144 -0.47877 93 ft 4 kts 205°
2026-05-05 11:54 51.47167 -0.47870 92 ft 4 kts 180°
2026-05-05 11:55 51.47189 -0.47871 90 ft 0 kts 180°
2026-05-05 11:57 51.47186 -0.47871 90 ft 2 kts 180°
2026-05-05 11:57 51.47132 -0.47870 92 ft 13 kts 179°
2026-05-05 11:57 51.47029 -0.47869 90 ft 15 kts 180°
2026-05-05 11:58 51.46924 -0.47868 90 ft 15 kts 179°
2026-05-05 11:58 51.46820 -0.47867 90 ft 13 kts 180°
2026-05-05 11:58 51.46759 -0.47871 90 ft 8 kts 196°
2026-05-05 11:58 51.46743 -0.47956 94 ft 9 kts 269°
2026-05-05 11:59 51.46743 -0.48044 90 ft 1 kts 269°
2026-05-05 11:59 51.46743 -0.48168 92 ft 25 kts 269°
2026-05-05 11:59 51.46742 -0.48450 91 ft 21 kts 268°
2026-05-05 11:59 51.46741 -0.48654 90 ft 13 kts 270°
2026-05-05 12:00 51.46704 -0.48744 93 ft 10 kts 186°
2026-05-05 12:00 51.46632 -0.48751 90 ft 9 kts 193°
2026-05-05 12:00 51.46609 -0.48763 94 ft 0 kts 198°
2026-05-05 12:00 51.46602 -0.48767 94 ft 5 kts 198°
2026-05-05 12:01 51.46542 -0.48787 93 ft 11 kts 183°
2026-05-05 12:01 51.46486 -0.48719 95 ft 11 kts 113°
2026-05-05 12:01 51.46480 -0.48635 92 ft 0 kts 91°
2026-05-05 12:01 51.46480 -0.48618 92 ft 13 kts 90°
2026-05-05 12:02 51.46480 -0.48068 92 ft 85 kts 90°
2026-05-05 12:02 51.46484 -0.46767 96 ft 146 kts 89°
2026-05-05 12:02 51.46490 -0.44943 447 ft 167 kts 86°
2026-05-05 12:02 51.46517 -0.43031 1184 ft 176 kts 85°
2026-05-05 12:03 51.46687 -0.41061 1891 ft 182 kts 62°
2026-05-05 12:03 51.47477 -0.39362 2087 ft 198 kts 47°
2026-05-05 12:03 51.48414 -0.37626 2392 ft 214 kts 49°
2026-05-05 12:03 51.49379 -0.35755 2824 ft 223 kts 48°
2026-05-05 12:04 51.50409 -0.33765 3196 ft 241 kts 49°
2026-05-05 12:04 51.51497 -0.31665 3864 ft 248 kts 49°
2026-05-05 12:04 51.52479 -0.29406 4421 ft 252 kts 66°
2026-05-05 12:04 51.53009 -0.26719 5003 ft 255 kts 72°
2026-05-05 12:05 51.53560 -0.24008 5689 ft 255 kts 71°
2026-05-05 12:05 51.54134 -0.21325 6235 ft 256 kts 70°
2026-05-05 12:05 51.55078 -0.18907 6583 ft 263 kts 39°
2026-05-05 12:05 51.56763 -0.17807 7138 ft 269 kts
2026-05-05 12:06 51.58571 -0.18483 7749 ft 273 kts 329°
2026-05-05 12:06 51.60004 -0.20485 8214 ft 276 kts 316°
2026-05-05 12:06 51.60948 -0.21881 8519 ft 280 kts 321°
2026-05-05 12:06 51.62517 -0.23756 9149 ft 281 kts 325°
2026-05-05 12:07 51.64103 -0.25619 9744 ft 284 kts 324°
2026-05-05 12:07 51.65743 -0.27426 10311 ft 288 kts 327°
2026-05-05 12:07 51.67490 -0.29232 10475 ft 309 kts 328°
2026-05-05 12:07 51.69355 -0.31073 10760 ft 326 kts 329°
2026-05-05 12:08 51.71347 -0.33006 11314 ft 335 kts 329°
2026-05-05 12:08 51.73374 -0.34956 12025 ft 341 kts 329°
2026-05-05 12:08 51.75420 -0.36924 12918 ft 345 kts 329°
2026-05-05 12:08 51.77504 -0.38921 13799 ft 351 kts 330°
2026-05-05 12:09 51.79608 -0.40941 14577 ft 355 kts 329°
2026-05-05 12:09 51.81748 -0.43005 15327 ft 360 kts 329°
2026-05-05 12:09 51.83910 -0.45114 16090 ft 366 kts 328°
2026-05-05 12:09 51.86098 -0.47256 16853 ft 370 kts 328°
2026-05-05 12:10 51.88318 -0.49432 17635 ft 375 kts 328°
2026-05-05 12:10 51.90563 -0.51631 18395 ft 380 kts 328°
2026-05-05 12:10 51.92846 -0.53870 19040 ft 386 kts 327°
2026-05-05 12:10 51.95151 -0.56128 19770 ft 389 kts 327°
2026-05-05 12:11 51.97483 -0.58404 20496 ft 392 kts 327°
2026-05-05 12:11 51.99833 -0.60695 21216 ft 396 kts 327°
2026-05-05 12:11 52.02205 -0.63011 21908 ft 400 kts 327°
2026-05-05 12:11 52.04604 -0.65357 22567 ft 405 kts 327°
2026-05-05 12:12 52.07034 -0.67738 23225 ft 411 kts 326°
2026-05-05 12:12 52.09496 -0.70153 23828 ft 415 kts 326°
2026-05-05 12:12 52.11983 -0.72595 24402 ft 419 kts 326°
2026-05-05 12:12 52.14487 -0.75062 24965 ft 423 kts 326°
2026-05-05 12:13 52.17017 -0.77567 25546 ft 427 kts 326°
2026-05-05 12:13 52.19564 -0.80095 26083 ft 431 kts 326°
2026-05-05 12:13 52.22141 -0.82654 26619 ft 435 kts 326°
2026-05-05 12:13 52.24734 -0.85232 27132 ft 439 kts 326°
2026-05-05 12:14 52.27360 -0.87840 27637 ft 443 kts 326°
2026-05-05 12:14 52.30001 -0.90458 28215 ft 444 kts 326°
2026-05-05 12:14 52.32647 -0.93082 28792 ft 446 kts 326°
2026-05-05 12:14 52.35304 -0.95721 29231 ft 450 kts 326°
2026-05-05 12:15 52.37995 -0.98400 29648 ft 454 kts 326°
2026-05-05 12:15 52.40699 -1.01098 30106 ft 456 kts 326°
2026-05-05 12:15 52.43415 -1.03808 30550 ft 457 kts 326°
2026-05-05 12:15 52.46130 -1.06523 30942 ft 459 kts 326°
2026-05-05 12:16 52.48865 -1.09262 31292 ft 462 kts 327°
2026-05-05 12:16 52.51578 -1.12001 31606 ft 465 kts 326°
2026-05-05 12:16 52.54366 -1.14833 31978 ft 466 kts 327°
2026-05-05 12:16 52.57130 -1.17644 32346 ft 467 kts 327°
2026-05-05 12:17 52.59903 -1.20454 32654 ft 470 kts 327°
2026-05-05 12:17 52.62692 -1.23277 32927 ft 472 kts 327°
2026-05-05 12:17 52.65467 -1.26088 33182 ft 475 kts 327°
2026-05-05 12:17 52.68319 -1.28985 33450 ft 477 kts 327°
2026-05-05 12:18 52.71117 -1.31832 33726 ft 479 kts 327°
2026-05-05 12:18 52.73992 -1.34757 34029 ft 479 kts 327°
2026-05-05 12:18 52.76777 -1.37594 34350 ft 478 kts 328°
2026-05-05 12:18 52.79656 -1.40530 34565 ft 480 kts 328°
2026-05-05 12:19 52.82444 -1.43377 35033 ft 476 kts 328°
2026-05-05 12:19 52.85247 -1.46244 35448 ft 473 kts 328°
2026-05-05 12:19 52.88045 -1.49110 35721 ft 474 kts 327°
2026-05-05 12:19 52.90852 -1.51993 35932 ft 475 kts 328°
2026-05-05 12:20 52.93693 -1.54912 36265 ft 474 kts 327°
2026-05-05 12:20 52.96454 -1.57756 36613 ft 472 kts 327°
2026-05-05 12:20 52.99277 -1.60670 36943 ft 471 kts 327°
2026-05-05 12:20 53.02054 -1.63535 37290 ft 469 kts 327°
2026-05-05 12:21 53.04789 -1.66362 37592 ft 469 kts 327°
2026-05-05 12:21 53.07589 -1.69266 37865 ft 469 kts 327°
2026-05-05 12:21 53.13142 -1.75051 38013 ft 473 kts 327°
2026-05-05 12:22 53.18694 -1.80848 38013 ft 468 kts 326°
2026-05-05 12:22 53.23516 -1.87824 38041 ft 462 kts 304°
2026-05-05 12:23 53.26251 -1.97469 38044 ft 456 kts 282°
2026-05-05 12:23 53.27577 -2.07792 38052 ft 459 kts 281°
2026-05-05 12:24 53.28245 -2.13156 38050 ft 460 kts 281°
2026-05-05 12:24 53.29577 -2.23630 38059 ft 461 kts 281°
2026-05-05 12:25 53.30944 -2.34115 38048 ft 462 kts 282°
2026-05-05 12:25 53.32320 -2.44605 38047 ft 462 kts 282°
2026-05-05 12:26 53.33691 -2.55113 38047 ft 461 kts 281°
2026-05-05 12:26 53.35040 -2.65546 38043 ft 456 kts 281°
2026-05-05 12:27 53.36369 -2.75911 38043 ft 456 kts 281°
2026-05-05 12:27 53.37697 -2.86341 38056 ft 460 kts 281°
2026-05-05 12:28 53.39016 -2.96780 38046 ft 455 kts 281°
2026-05-05 12:28 53.40317 -3.07160 38050 ft 456 kts 281°
2026-05-05 12:29 53.41616 -3.17601 38065 ft 459 kts 281°
2026-05-05 12:29 53.42917 -3.28131 38058 ft 462 kts 281°
2026-05-05 12:30 53.44209 -3.38679 38047 ft 460 kts 281°
2026-05-05 12:30 53.45483 -3.49156 38058 ft 457 kts 281°
2026-05-05 12:31 53.46746 -3.59620 38056 ft 457 kts 281°
2026-05-05 12:31 53.47995 -3.70061 38055 ft 457 kts 281°
2026-05-05 12:32 53.49240 -3.80538 38067 ft 458 kts 281°
2026-05-05 12:32 53.50478 -3.91045 38062 ft 459 kts 281°
2026-05-05 12:33 53.51707 -4.01566 38071 ft 459 kts 281°
2026-05-05 12:33 53.52930 -4.12117 38064 ft 460 kts 281°
2026-05-05 12:34 53.54143 -4.22668 38077 ft 459 kts 281°
2026-05-05 12:34 53.55344 -4.33199 38066 ft 458 kts 280°
2026-05-05 12:35 53.56533 -4.43713 38080 ft 457 kts 280°
2026-05-05 12:35 53.57713 -4.54231 38069 ft 457 kts 280°
2026-05-05 12:36 53.58882 -4.64747 38075 ft 457 kts 280°
2026-05-05 12:36 53.60044 -4.75290 38079 ft 458 kts 280°
2026-05-05 12:37 53.61191 -4.85774 38076 ft 458 kts 280°
2026-05-05 12:37 53.62335 -4.96330 38075 ft 458 kts 280°
2026-05-05 12:38 53.63471 -5.06900 38087 ft 458 kts 280°
2026-05-05 12:38 53.64598 -5.17477 38081 ft 458 kts 279°
2026-05-05 12:39 53.65712 -5.28037 38084 ft 457 kts 279°
2026-05-05 12:39 53.66819 -5.38598 38083 ft 457 kts 279°
2026-05-05 12:40 53.67851 -5.49159 38083 ft 456 kts 276°
2026-05-05 12:40 53.67991 -5.59849 38092 ft 456 kts 269°
2026-05-05 12:41 53.67848 -5.70553 38081 ft 457 kts 269°
2026-05-05 12:41 53.67718 -5.81255 38082 ft 457 kts 269°
2026-05-05 12:42 53.67598 -5.91975 38083 ft 457 kts 269°
2026-05-05 12:42 53.67475 -6.02700 38081 ft 457 kts 269°
2026-05-05 12:43 53.67342 -6.13424 38079 ft 457 kts 269°
2026-05-05 12:43 53.67200 -6.24139 38079 ft 457 kts 269°
2026-05-05 12:44 53.67047 -6.34862 38075 ft 457 kts 269°
2026-05-05 12:44 53.66885 -6.45576 38067 ft 457 kts 269°
2026-05-05 12:45 53.66713 -6.56295 38073 ft 457 kts 268°
2026-05-05 12:45 53.66532 -6.67006 38077 ft 457 kts 268°
2026-05-05 12:46 53.66341 -6.77706 38066 ft 457 kts 268°
2026-05-05 12:46 53.66140 -6.88417 38072 ft 457 kts 268°
2026-05-05 12:47 53.65930 -6.99133 38071 ft 457 kts 268°
2026-05-05 12:47 53.65711 -7.09842 38070 ft 458 kts 268°
2026-05-05 12:48 53.65481 -7.20569 38072 ft 458 kts 268°
2026-05-05 12:48 53.65243 -7.31299 38064 ft 458 kts 268°
2026-05-05 12:49 53.64994 -7.42019 38068 ft 458 kts 268°
2026-05-05 12:49 53.64781 -7.50933 38077 ft 458 kts 268°
2026-05-05 12:50 53.64516 -7.61669 38072 ft 458 kts 268°
2026-05-05 12:50 53.64163 -7.72397 38072 ft 458 kts 265°
2026-05-05 12:51 53.63528 -7.83078 38079 ft 458 kts 264°
2026-05-05 12:51 53.62847 -7.93763 38077 ft 458 kts 264°
2026-05-05 12:52 53.62191 -8.04441 38076 ft 458 kts 264°
2026-05-05 12:52 53.61547 -8.15124 38078 ft 458 kts 264°
2026-05-05 12:53 53.60901 -8.25799 38078 ft 458 kts 264°
2026-05-05 12:53 53.60246 -8.36471 38088 ft 458 kts 264°
2026-05-05 12:54 53.59242 -8.52481 38083 ft 458 kts 264°
2026-05-05 12:55 53.58561 -8.63151 38096 ft 458 kts 264°
2026-05-05 12:55 53.57870 -8.73816 38095 ft 459 kts 264°
2026-05-05 12:56 53.57170 -8.84470 38090 ft 458 kts 264°
2026-05-05 12:56 53.56460 -8.95132 38102 ft 458 kts 264°
2026-05-05 12:57 53.55741 -9.05785 38100 ft 458 kts 264°
2026-05-05 12:57 53.55013 -9.16422 38104 ft 458 kts 264°
2026-05-05 12:58 53.54275 -9.27067 38102 ft 458 kts 264°
2026-05-05 12:58 53.53527 -9.37710 38108 ft 458 kts 264°
2026-05-05 12:59 53.52772 -9.48321 38113 ft 459 kts 263°
2026-05-05 12:59 53.52006 -9.58957 38122 ft 459 kts 263°
2026-05-05 13:00 53.50837 -9.74932 38123 ft 459 kts 263°
2026-05-05 13:01 53.49246 -9.96196 38139 ft 459 kts 263°
2026-05-05 13:01 53.48442 -10.06749 38137 ft 458 kts 263°
2026-05-05 13:02 53.47618 -10.17433 38142 ft 458 kts 263°
2026-05-05 13:02 53.46797 -10.27960 38145 ft 458 kts 263°
2026-05-05 13:03 53.45955 -10.38629 38145 ft 458 kts 263°
2026-05-05 13:03 53.45115 -10.49143 38151 ft 458 kts 263°
2026-05-05 13:04 53.44260 -10.59737 38148 ft 458 kts 263°
2026-05-05 13:04 53.43395 -10.70326 38150 ft 458 kts 263°
2026-05-05 13:05 53.42520 -10.80916 38155 ft 458 kts 263°
2026-05-05 13:05 53.41637 -10.91491 38154 ft 458 kts 263°
2026-05-05 13:06 53.40744 -11.02074 38159 ft 458 kts 263°
2026-05-05 13:06 53.39841 -11.12652 38157 ft 458 kts 262°
2026-05-05 13:07 53.38930 -11.23215 38162 ft 458 kts 262°
2026-05-05 13:07 53.38008 -11.33783 38160 ft 458 kts 262°
2026-05-05 13:08 53.37079 -11.44335 38162 ft 458 kts 262°
2026-05-05 13:08 53.36138 -11.54894 38168 ft 458 kts 262°
2026-05-05 13:09 53.35189 -11.65455 38168 ft 459 kts 262°
2026-05-05 13:09 53.34230 -11.76001 38170 ft 459 kts 262°
2026-05-05 13:10 53.33261 -11.86561 38174 ft 459 kts 262°
2026-05-05 13:10 53.32290 -11.97032 38175 ft 459 kts 262°
2026-05-05 13:11 53.31303 -12.07576 38176 ft 459 kts 262°
2026-05-05 13:11 53.30307 -12.18111 38177 ft 458 kts 262°
2026-05-05 13:12 53.29302 -12.28626 38179 ft 458 kts 262°
2026-05-05 13:12 53.28288 -12.39147 38170 ft 458 kts 262°
2026-05-05 13:13 53.27265 -12.49659 38178 ft 458 kts 262°
2026-05-05 13:13 53.26234 -12.60152 38188 ft 458 kts 262°
2026-05-05 13:14 53.25193 -12.70650 38188 ft 458 kts 262°
2026-05-05 13:14 53.24142 -12.81148 38190 ft 458 kts 261°
2026-05-05 13:15 53.23082 -12.91634 38185 ft 458 kts 261°
2026-05-05 13:15 53.22013 -13.02117 38194 ft 458 kts 261°
2026-05-05 13:16 53.20935 -13.12595 38191 ft 458 kts 261°
2026-05-05 13:16 53.19849 -13.23057 38195 ft 458 kts 261°
2026-05-05 13:17 53.18752 -13.33526 38196 ft 458 kts 261°
2026-05-05 13:17 53.17648 -13.43975 38193 ft 458 kts 261°
2026-05-05 13:18 53.16534 -13.54416 38203 ft 457 kts 261°
2026-05-05 13:18 53.15413 -13.64846 38198 ft 457 kts 261°
2026-05-05 13:19 53.14284 -13.75254 38199 ft 457 kts 261°
2026-05-05 13:19 53.13152 -13.85597 38201 ft 457 kts 261°
2026-05-05 13:20 53.12005 -13.95997 38204 ft 457 kts 261°
2026-05-05 13:20 53.10848 -14.06394 38204 ft 457 kts 261°
2026-05-05 13:21 53.09684 -14.16773 38204 ft 457 kts 261°
2026-05-05 13:21 53.08509 -14.27158 38207 ft 457 kts 261°
2026-05-05 13:22 53.07325 -14.37540 38207 ft 457 kts 261°
2026-05-05 13:22 53.06135 -14.47897 38211 ft 456 kts 261°
2026-05-05 13:23 53.04933 -14.58261 38207 ft 456 kts 260°
2026-05-05 13:23 53.03723 -14.68620 38209 ft 456 kts 260°
2026-05-05 13:24 53.02506 -14.78961 38213 ft 456 kts 260°
2026-05-05 13:24 53.01280 -14.89305 38207 ft 456 kts 260°
2026-05-05 13:25 53.00761 -14.99728 38215 ft 453 kts 276°
2026-05-05 13:25 53.02078 -15.09878 38220 ft 452 kts 290°
2026-05-05 13:26 53.04314 -15.19647 38221 ft 453 kts 291°
2026-05-05 13:26 53.06566 -15.29438 38220 ft 454 kts 291°
2026-05-05 13:27 53.08781 -15.39271 38221 ft 454 kts 290°
2026-05-05 13:27 53.10966 -15.49124 38218 ft 454 kts 290°
2026-05-05 13:28 53.13138 -15.58989 38226 ft 454 kts 290°
2026-05-05 13:28 53.15287 -15.68803 38223 ft 454 kts 290°
2026-05-05 13:29 53.17441 -15.78678 38226 ft 453 kts 290°
2026-05-05 13:29 53.19603 -15.88634 38229 ft 453 kts 290°
2026-05-05 13:30 53.21726 -15.98460 38229 ft 453 kts 290°
2026-05-05 13:30 53.23856 -16.08368 38230 ft 453 kts 290°
2026-05-05 13:31 53.25994 -16.18356 38226 ft 454 kts 290°
2026-05-05 13:31 53.28100 -16.28245 38378 ft 457 kts 290°
2026-05-05 13:32 53.29161 -16.33248 38659 ft 456 kts 290°
2026-05-05 13:32 53.30217 -16.38237 38923 ft 456 kts 290°
2026-05-05 13:32 53.31271 -16.43234 39105 ft 456 kts 290°
2026-05-05 13:32 53.32328 -16.48251 39151 ft 458 kts 290°
2026-05-05 13:33 53.34438 -16.58308 39228 ft 458 kts 290°
2026-05-05 13:33 53.36532 -16.68341 39223 ft 455 kts 289°
2026-05-05 13:34 53.38608 -16.78337 39231 ft 454 kts 289°
2026-05-05 13:34 53.40673 -16.88326 39231 ft 453 kts 289°
2026-05-05 13:35 53.42728 -16.98316 39235 ft 454 kts 289°
2026-05-05 13:35 53.44779 -17.08340 39238 ft 455 kts 289°
2026-05-05 13:36 53.46825 -17.18391 39240 ft 455 kts 289°
2026-05-05 13:36 53.48534 -17.26826 39235 ft 456 kts 289°
2026-05-05 13:37 53.50557 -17.36855 39238 ft 456 kts 289°
2026-05-05 13:37 53.52583 -17.46954 39240 ft 456 kts 289°
2026-05-05 13:38 53.54603 -17.57073 39239 ft 456 kts 289°
2026-05-05 13:38 53.56612 -17.67187 39240 ft 456 kts 289°
2026-05-05 13:39 53.58614 -17.77323 39240 ft 456 kts 289°
2026-05-05 13:39 53.60604 -17.87450 39242 ft 456 kts 289°
2026-05-05 13:40 53.62586 -17.97588 39238 ft 455 kts 289°
2026-05-05 13:40 53.64558 -18.07730 39255 ft 455 kts 289°
2026-05-05 13:41 53.66521 -18.17876 39245 ft 456 kts 289°
2026-05-05 13:41 53.68478 -18.28049 39245 ft 456 kts 289°
2026-05-05 13:42 53.70427 -18.38233 39249 ft 456 kts 288°
2026-05-05 13:42 53.72366 -18.48419 39247 ft 456 kts 288°
2026-05-05 13:43 53.74298 -18.58625 39237 ft 456 kts 288°
2026-05-05 13:43 53.76221 -18.68836 39251 ft 456 kts 288°
2026-05-05 13:44 53.78134 -18.79046 39247 ft 456 kts 288°
2026-05-05 13:44 53.80040 -18.89279 39247 ft 456 kts 288°
2026-05-05 13:45 53.81936 -18.99515 39250 ft 456 kts 288°
2026-05-05 13:45 53.83825 -19.09771 39249 ft 456 kts 288°
2026-05-05 13:46 53.85706 -19.20035 39242 ft 456 kts 288°
2026-05-05 13:46 53.87575 -19.30293 39253 ft 456 kts 288°
2026-05-05 13:47 53.89437 -19.40568 39253 ft 456 kts 288°
2026-05-05 13:47 53.91289 -19.50853 39253 ft 456 kts 288°
2026-05-05 13:48 53.93131 -19.61135 39263 ft 456 kts 288°
2026-05-05 13:48 53.94967 -19.71441 39254 ft 456 kts 288°
2026-05-05 13:49 53.96795 -19.81757 39256 ft 456 kts 288°
2026-05-05 13:49 53.98614 -19.92079 39251 ft 456 kts 288°
2026-05-05 13:50 54.00100 -20.02543 39263 ft 457 kts 279°
2026-05-05 13:50 54.00609 -20.13344 39263 ft 459 kts 275°
2026-05-05 13:51 54.00997 -20.24089 39262 ft 459 kts 275°
2026-05-05 13:51 54.01398 -20.34920 39261 ft 459 kts 275°
2026-05-05 13:52 54.01806 -20.45758 39249 ft 459 kts 276°
2026-05-05 13:52 54.02211 -20.56598 39266 ft 459 kts 276°
2026-05-05 13:53 54.02608 -20.67443 39263 ft 460 kts 276°
2026-05-05 13:53 54.02994 -20.78301 39265 ft 460 kts 275°
2026-05-05 13:54 54.03370 -20.89175 39266 ft 460 kts 275°
2026-05-05 13:54 54.03736 -21.00047 39252 ft 460 kts 275°
2026-05-05 13:55 54.04093 -21.10928 39263 ft 460 kts 275°
2026-05-05 13:55 54.04440 -21.21803 39268 ft 461 kts 275°
2026-05-05 13:56 54.04777 -21.32697 39266 ft 461 kts 275°
2026-05-05 13:56 54.05104 -21.43582 39270 ft 461 kts 275°
2026-05-05 13:57 54.05422 -21.54485 39269 ft 461 kts 275°
2026-05-05 13:57 54.05730 -21.65380 39263 ft 461 kts 275°
2026-05-05 13:58 54.06028 -21.76283 39277 ft 461 kts 275°
2026-05-05 13:58 54.06316 -21.87189 39270 ft 461 kts 275°
2026-05-05 13:59 54.06730 -22.03543 39271 ft 461 kts 275°
2026-05-05 14:00 54.07078 -22.18066 39275 ft 461 kts 275°
2026-05-05 14:00 54.07370 -22.30830 39277 ft 461 kts 275°
2026-05-05 14:01 54.07609 -22.41749 39276 ft 461 kts 274°
2026-05-05 14:01 54.07838 -22.52658 39283 ft 461 kts 274°
2026-05-05 14:02 54.08057 -22.63581 39277 ft 461 kts 274°
2026-05-05 14:02 54.08267 -22.74506 39262 ft 461 kts 274°
2026-05-05 14:03 54.08466 -22.85419 39278 ft 461 kts 274°
2026-05-05 14:03 54.08655 -22.96345 39290 ft 461 kts 274°
2026-05-05 14:04 54.08835 -23.07265 39283 ft 462 kts 274°
2026-05-05 14:04 54.09005 -23.18200 39276 ft 462 kts 274°
2026-05-05 14:05 54.09165 -23.29126 39285 ft 462 kts 274°
2026-05-05 14:05 54.09314 -23.39989 39273 ft 461 kts 274°
2026-05-05 14:06 54.09454 -23.50911 39284 ft 461 kts 274°
2026-05-05 14:06 54.09584 -23.61829 39290 ft 461 kts 274°
2026-05-05 14:07 54.09704 -23.72761 39288 ft 461 kts 274°
2026-05-05 14:07 54.09815 -23.83681 39289 ft 461 kts 274°
2026-05-05 14:08 54.09915 -23.94617 39272 ft 461 kts 274°
2026-05-05 14:08 54.10005 -24.05545 39296 ft 461 kts 274°
2026-05-05 14:09 54.10086 -24.16460 39288 ft 461 kts 274°
2026-05-05 14:09 54.10157 -24.27389 39285 ft 461 kts 274°
2026-05-05 14:10 54.10218 -24.38315 39286 ft 461 kts 274°
2026-05-05 14:10 54.10269 -24.49229 39276 ft 461 kts 274°
2026-05-05 14:11 54.10309 -24.60074 39287 ft 460 kts 273°
2026-05-05 14:11 54.10341 -24.71039 39289 ft 460 kts 273°
2026-05-05 14:12 54.10362 -24.81867 39293 ft 460 kts 273°
2026-05-05 14:12 54.10374 -24.92769 39298 ft 460 kts 273°
2026-05-05 14:13 54.10375 -25.03659 39304 ft 460 kts 273°
2026-05-05 14:13 54.10367 -25.14555 39293 ft 460 kts 273°
2026-05-05 14:14 54.10349 -25.25445 39297 ft 459 kts 273°
2026-05-05 14:14 54.10321 -25.36331 39303 ft 459 kts 273°
2026-05-05 14:15 54.10284 -25.47204 39300 ft 459 kts 273°
2026-05-05 14:15 54.10236 -25.58090 39306 ft 459 kts 272°
2026-05-05 14:16 54.10179 -25.68968 39286 ft 459 kts 272°
2026-05-05 14:16 54.10112 -25.79837 39294 ft 458 kts 272°
2026-05-05 14:17 54.10035 -25.90683 39303 ft 458 kts 272°
2026-05-05 14:17 54.09949 -26.01537 39302 ft 458 kts 272°
2026-05-05 14:18 54.09853 -26.12320 39307 ft 458 kts 272°
2026-05-05 14:18 54.09747 -26.23235 39307 ft 458 kts 272°
2026-05-05 14:19 54.09631 -26.34009 39305 ft 457 kts 272°
2026-05-05 14:19 54.09506 -26.44844 39314 ft 457 kts 272°
2026-05-05 14:20 54.09372 -26.55664 39305 ft 457 kts 272°
2026-05-05 14:20 54.09227 -26.66490 39304 ft 457 kts 272°
2026-05-05 14:21 54.09073 -26.77325 39308 ft 457 kts 272°
2026-05-05 14:21 54.08908 -26.88163 39298 ft 458 kts 272°
2026-05-05 14:22 54.08735 -26.98989 39314 ft 458 kts 272°
2026-05-05 14:22 54.08551 -27.09831 39315 ft 458 kts 272°
2026-05-05 14:23 54.08358 -27.20669 39316 ft 458 kts 272°
2026-05-05 14:23 54.08189 -27.29693 39314 ft 458 kts 271°
2026-05-05 14:24 54.07977 -27.40537 39309 ft 459 kts 271°
2026-05-05 14:24 54.07756 -27.51390 39308 ft 458 kts 271°
2026-05-05 14:25 54.07525 -27.62243 39316 ft 459 kts 271°
2026-05-05 14:25 54.07284 -27.73088 39315 ft 459 kts 271°
2026-05-05 14:26 54.07033 -27.83956 39313 ft 459 kts 271°
2026-05-05 14:26 54.06772 -27.94810 39313 ft 459 kts 271°
2026-05-05 14:27 54.06501 -28.05677 39313 ft 460 kts 271°
2026-05-05 14:27 54.06220 -28.16555 39319 ft 460 kts 271°
2026-05-05 14:28 54.05930 -28.27426 39315 ft 460 kts 271°
2026-05-05 14:28 54.05629 -28.38317 39321 ft 461 kts 271°
2026-05-05 14:29 54.05318 -28.49211 39315 ft 461 kts 271°
2026-05-05 14:29 54.04997 -28.60091 39304 ft 460 kts 271°
2026-05-05 14:30 54.04667 -28.70968 39317 ft 460 kts 271°
2026-05-05 14:30 54.04327 -28.81835 39324 ft 460 kts 271°
2026-05-05 14:31 54.03979 -28.92687 39323 ft 460 kts 271°
2026-05-05 14:31 54.03619 -29.03547 39323 ft 460 kts 270°
2026-05-05 14:32 54.03251 -29.14404 39300 ft 460 kts 270°
2026-05-05 14:32 54.02873 -29.25236 39318 ft 459 kts 270°
2026-05-05 14:33 54.02485 -29.36067 39318 ft 458 kts 270°
2026-05-05 14:33 54.02088 -29.46890 39322 ft 458 kts 270°
2026-05-05 14:34 54.01682 -29.57697 39312 ft 458 kts 270°
2026-05-05 14:34 54.01266 -29.68515 39312 ft 458 kts 270°
2026-05-05 14:35 54.00841 -29.79315 39306 ft 458 kts 269°
2026-05-05 14:35 54.00407 -29.90113 39312 ft 458 kts 269°
2026-05-05 14:36 54.00038 -30.00903 39313 ft 456 kts 273°
2026-05-05 14:36 54.00407 -30.11599 39320 ft 453 kts 277°
2026-05-05 14:37 54.00876 -30.22296 39309 ft 454 kts 277°
2026-05-05 14:37 54.01319 -30.33009 39293 ft 454 kts 276°
2026-05-05 14:38 54.01737 -30.43718 39303 ft 454 kts 276°
2026-05-05 14:38 54.02138 -30.54446 39308 ft 455 kts 276°
2026-05-05 14:39 54.02527 -30.65114 39308 ft 455 kts 276°
2026-05-05 14:39 54.02913 -30.75919 39302 ft 455 kts 276°
2026-05-05 14:40 54.03287 -30.86669 39301 ft 455 kts 276°
2026-05-05 14:40 54.03651 -30.97423 39287 ft 455 kts 275°
2026-05-05 14:41 54.04006 -31.08165 39294 ft 455 kts 275°
2026-05-05 14:41 54.04349 -31.18855 39292 ft 456 kts 275°
2026-05-05 14:42 54.04686 -31.29626 39291 ft 456 kts 274°
2026-05-05 14:42 54.05012 -31.40397 39295 ft 456 kts 274°
2026-05-05 14:43 54.05330 -31.51193 39289 ft 457 kts 274°
2026-05-05 14:43 54.05638 -31.61980 39281 ft 457 kts 274°
2026-05-05 14:44 54.05937 -31.72785 39283 ft 457 kts 274°
2026-05-05 14:44 54.06224 -31.83579 39273 ft 457 kts 273°
2026-05-05 14:45 54.06503 -31.94387 39290 ft 457 kts 273°
2026-05-05 14:45 54.06773 -32.05195 39275 ft 457 kts 273°
2026-05-05 14:46 54.07032 -32.15991 39281 ft 457 kts 273°
2026-05-05 14:46 54.07283 -32.26804 39277 ft 456 kts 272°
2026-05-05 14:47 54.07523 -32.37608 39281 ft 457 kts 272°
2026-05-05 14:47 54.07753 -32.48444 39272 ft 458 kts 272°
2026-05-05 14:48 54.07974 -32.59263 39278 ft 458 kts 272°
2026-05-05 14:48 54.08186 -32.70107 39266 ft 458 kts 272°
2026-05-05 14:49 54.08387 -32.80875 39256 ft 458 kts 272°
2026-05-05 14:49 54.08581 -32.91782 39268 ft 458 kts 271°
2026-05-05 14:50 54.08762 -33.02556 39244 ft 458 kts 271°
2026-05-05 14:50 54.08934 -33.13398 39253 ft 458 kts 270°
2026-05-05 14:51 54.09097 -33.24256 39261 ft 458 kts 270°
2026-05-05 14:51 54.09250 -33.35118 39238 ft 459 kts 270°
2026-05-05 14:52 54.09394 -33.45972 39240 ft 459 kts 270°
2026-05-05 14:52 54.09528 -33.56837 39234 ft 459 kts 269°
2026-05-05 14:53 54.09653 -33.67747 39253 ft 462 kts 269°
2026-05-05 14:53 54.09767 -33.78714 39237 ft 464 kts 269°
2026-05-05 14:54 54.09873 -33.89715 39239 ft 465 kts 268°
2026-05-05 14:54 54.09969 -34.00739 39244 ft 465 kts 269°
2026-05-05 14:55 54.10055 -34.11781 39226 ft 466 kts 268°
2026-05-05 14:55 54.10131 -34.22831 39225 ft 466 kts 269°
2026-05-05 14:56 54.10196 -34.33871 39225 ft 466 kts 269°
2026-05-05 14:56 54.10252 -34.44918 39219 ft 466 kts 268°
2026-05-05 14:57 54.10297 -34.55961 39222 ft 466 kts 269°
2026-05-05 14:57 54.10333 -34.66986 39205 ft 466 kts 268°
2026-05-05 14:58 54.10358 -34.78022 39208 ft 465 kts 268°
2026-05-05 14:58 54.10373 -34.89058 39202 ft 466 kts 267°
2026-05-05 14:59 54.10378 -35.00096 39198 ft 467 kts 267°
2026-05-05 14:59 54.10372 -35.11167 39190 ft 467 kts 267°
2026-05-05 15:00 54.10360 -35.20375 39185 ft 468 kts 267°
2026-05-05 15:00 54.10331 -35.33338 39186 ft 468 kts 266°
2026-05-05 15:01 54.10296 -35.44428 39174 ft 468 kts 266°
2026-05-05 15:01 54.10250 -35.55519 39181 ft 468 kts 266°
2026-05-05 15:02 54.10195 -35.66580 39162 ft 467 kts 266°
2026-05-05 15:02 54.10129 -35.77555 39163 ft 466 kts 266°
2026-05-05 15:03 54.10053 -35.88584 39162 ft 465 kts 266°
2026-05-05 15:03 54.09967 -35.99616 39152 ft 466 kts 266°
2026-05-05 15:04 54.09870 -36.10677 39164 ft 467 kts 266°
2026-05-05 15:04 54.09763 -36.21763 39144 ft 468 kts 266°
2026-05-05 15:05 54.09585 -36.38351 39131 ft 466 kts 266°
2026-05-05 15:06 54.09454 -36.49384 39143 ft 465 kts 265°
2026-05-05 15:06 54.09312 -36.60407 39130 ft 466 kts 265°
2026-05-05 15:07 54.09159 -36.71452 39114 ft 466 kts 265°
2026-05-05 15:07 54.08998 -36.82482 39136 ft 466 kts 265°
2026-05-05 15:08 54.08825 -36.93538 39119 ft 468 kts 265°
2026-05-05 15:08 54.08641 -37.04644 39118 ft 470 kts 265°
2026-05-05 15:09 54.08481 -37.13890 39116 ft 471 kts 265°
2026-05-05 15:09 54.08278 -37.25045 39107 ft 471 kts 265°
2026-05-05 15:10 54.08065 -37.36202 39113 ft 471 kts 265°
2026-05-05 15:10 54.07842 -37.47335 39113 ft 471 kts 265°
2026-05-05 15:11 54.07608 -37.58471 39108 ft 470 kts 265°
2026-05-05 15:11 54.07364 -37.69593 39103 ft 470 kts 265°
2026-05-05 15:12 54.07111 -37.80704 39104 ft 470 kts 264°
2026-05-05 15:12 54.06846 -37.91845 39096 ft 471 kts 264°
2026-05-05 15:13 54.06570 -38.02996 39096 ft 471 kts 264°
2026-05-05 15:13 54.06285 -38.14137 39096 ft 471 kts 264°
2026-05-05 15:14 54.05990 -38.25278 39091 ft 470 kts 264°
2026-05-05 15:14 54.05685 -38.36378 39092 ft 469 kts 264°
2026-05-05 15:15 54.05370 -38.47471 39092 ft 469 kts 264°
2026-05-05 15:15 54.05048 -38.58459 39094 ft 468 kts 264°
2026-05-05 15:16 54.04713 -38.69534 39122 ft 469 kts 263°
2026-05-05 15:16 54.04366 -38.80645 39104 ft 471 kts 263°
2026-05-05 15:17 54.04009 -38.91776 39097 ft 471 kts 263°
2026-05-05 15:17 54.03642 -39.02912 39099 ft 471 kts 263°
2026-05-05 15:18 54.03264 -39.14033 39097 ft 471 kts 263°
2026-05-05 15:18 54.02876 -39.25160 39090 ft 471 kts 263°
2026-05-05 15:19 54.02479 -39.36279 39105 ft 471 kts 263°
2026-05-05 15:19 54.02071 -39.47381 39096 ft 471 kts 263°
2026-05-05 15:20 54.01653 -39.58489 39103 ft 471 kts 263°
2026-05-05 15:20 54.01223 -39.69610 39092 ft 471 kts 263°
2026-05-05 15:21 54.00784 -39.80729 39084 ft 472 kts 263°
2026-05-05 15:21 54.00336 -39.91864 39081 ft 472 kts 262°
2026-05-05 15:22 53.99865 -40.02986 39088 ft 472 kts 262°
2026-05-05 15:22 53.99244 -40.14092 39084 ft 472 kts 261°
2026-05-05 15:23 53.98566 -40.25180 39085 ft 472 kts 261°
2026-05-05 15:23 53.97892 -40.36258 39079 ft 472 kts 261°
2026-05-05 15:24 53.97221 -40.47347 39092 ft 472 kts 261°
2026-05-05 15:24 53.96544 -40.58449 39082 ft 473 kts 261°
2026-05-05 15:25 53.95857 -40.69553 39079 ft 473 kts 260°
2026-05-05 15:25 53.95157 -40.80679 39073 ft 474 kts 260°
2026-05-05 15:26 53.94448 -40.91787 39070 ft 474 kts 260°
2026-05-05 15:26 53.93728 -41.02902 39072 ft 474 kts 260°
2026-05-05 15:27 53.92998 -41.14005 39067 ft 473 kts 260°
2026-05-05 15:27 53.92257 -41.25105 39075 ft 473 kts 260°
2026-05-05 15:28 53.91511 -41.36127 39061 ft 473 kts 260°
2026-05-05 15:28 53.90752 -41.47199 39060 ft 474 kts 260°
2026-05-05 15:29 53.89980 -41.58301 39055 ft 474 kts 259°
2026-05-05 15:29 53.89198 -41.69397 39055 ft 474 kts 259°
2026-05-05 15:30 53.88404 -41.80508 39047 ft 475 kts 259°
2026-05-05 15:30 53.87600 -41.91617 39054 ft 475 kts 259°
2026-05-05 15:31 53.86787 -42.02708 39043 ft 474 kts 259°
2026-05-05 15:31 53.85963 -42.13798 39043 ft 474 kts 259°
2026-05-05 15:32 53.85130 -42.24870 39030 ft 474 kts 259°
2026-05-05 15:32 53.84288 -42.35919 39030 ft 473 kts 259°
2026-05-05 15:33 53.83436 -42.46970 39041 ft 473 kts 259°
2026-05-05 15:33 53.82573 -42.58013 39027 ft 473 kts 259°
2026-05-05 15:34 53.81701 -42.69054 39023 ft 473 kts 259°
2026-05-05 15:34 53.80819 -42.80076 39019 ft 473 kts 259°
2026-05-05 15:35 53.79929 -42.91069 39204 ft 476 kts 259°
2026-05-05 15:35 53.79476 -42.96610 39440 ft 475 kts 259°
2026-05-05 15:35 53.79023 -43.02137 39694 ft 474 kts 258°
2026-05-05 15:35 53.78568 -43.07642 39920 ft 473 kts 258°
2026-05-05 15:36 53.78109 -43.13171 39959 ft 476 kts 258°
2026-05-05 15:36 53.77181 -43.24242 39996 ft 474 kts 258°
2026-05-05 15:37 53.76250 -43.35232 40004 ft 472 kts 258°
2026-05-05 15:37 53.75309 -43.46214 39998 ft 472 kts 258°
2026-05-05 15:38 53.74356 -43.57201 39996 ft 473 kts 258°
2026-05-05 15:38 53.73392 -43.68197 39998 ft 474 kts 258°
2026-05-05 15:39 53.72416 -43.79220 39990 ft 475 kts 258°
2026-05-05 15:39 53.71429 -43.90243 39982 ft 475 kts 258°
2026-05-05 15:40 53.70435 -44.01240 39978 ft 474 kts 258°
2026-05-05 15:40 53.69429 -44.12233 39969 ft 474 kts 258°
2026-05-05 15:41 53.68415 -44.23210 39981 ft 473 kts 258°
2026-05-05 15:41 53.67390 -44.34180 39984 ft 474 kts 258°
2026-05-05 15:42 53.66353 -44.45174 39948 ft 475 kts 258°
2026-05-05 15:42 53.65307 -44.56155 39944 ft 475 kts 257°
2026-05-05 15:43 53.64249 -44.67142 39940 ft 475 kts 257°
2026-05-05 15:43 53.63182 -44.78119 39939 ft 474 kts 257°
2026-05-05 15:44 53.62107 -44.89075 39928 ft 474 kts 257°
2026-05-05 15:44 53.61020 -45.00033 39931 ft 474 kts 257°
2026-05-05 15:45 53.59925 -45.10978 39924 ft 474 kts 257°
2026-05-05 15:45 53.58821 -45.21896 39915 ft 474 kts 257°
2026-05-05 15:46 53.57705 -45.32829 39910 ft 474 kts 257°
2026-05-05 15:46 53.56579 -45.43764 39903 ft 474 kts 257°
2026-05-05 15:47 53.55443 -45.54686 39900 ft 474 kts 257°
2026-05-05 15:47 53.54297 -45.65612 39880 ft 474 kts 257°
2026-05-05 15:48 53.53149 -45.76458 39882 ft 474 kts 257°
2026-05-05 15:48 53.51984 -45.87352 39880 ft 474 kts 257°
2026-05-05 15:49 53.50809 -45.98247 39870 ft 474 kts 257°
2026-05-05 15:49 53.49625 -46.09131 39882 ft 474 kts 256°
2026-05-05 15:50 53.48431 -46.20007 39874 ft 474 kts 257°
2026-05-05 15:50 53.47226 -46.30889 39859 ft 474 kts 257°
2026-05-05 15:51 53.46012 -46.41759 39858 ft 473 kts 256°
2026-05-05 15:51 53.44790 -46.52603 39856 ft 473 kts 256°
2026-05-05 15:52 53.43558 -46.63443 39831 ft 473 kts 256°
2026-05-05 15:52 53.42316 -46.74274 39834 ft 473 kts 256°
2026-05-05 15:53 53.41066 -46.85089 39831 ft 473 kts 256°
2026-05-05 15:53 53.39804 -46.95913 39830 ft 473 kts 256°
2026-05-05 15:54 53.38532 -47.06740 39820 ft 474 kts 256°
2026-05-05 15:54 53.37248 -47.17568 39817 ft 475 kts 256°
2026-05-05 15:55 53.35952 -47.28414 39814 ft 475 kts 256°
2026-05-05 15:55 53.34868 -47.37415 39806 ft 475 kts 255°
2026-05-05 15:56 53.33556 -47.48236 39801 ft 474 kts 255°
2026-05-05 15:56 53.32238 -47.59023 39791 ft 473 kts 256°
2026-05-05 15:57 53.30913 -47.69770 39792 ft 472 kts 255°
2026-05-05 15:57 53.29578 -47.80516 39781 ft 472 kts 256°
2026-05-05 15:58 53.28234 -47.91250 39802 ft 472 kts 255°
2026-05-05 15:58 53.26876 -48.02003 39785 ft 473 kts 255°
2026-05-05 15:59 53.25509 -48.12758 39759 ft 473 kts 255°
2026-05-05 15:59 53.24133 -48.23500 39768 ft 473 kts 255°
2026-05-05 16:00 53.22749 -48.34216 39758 ft 472 kts 256°
2026-05-05 16:00 53.21355 -48.44928 39744 ft 472 kts 256°
2026-05-05 16:01 53.19956 -48.55605 39745 ft 471 kts 255°
2026-05-05 16:01 53.18550 -48.66265 39741 ft 470 kts 255°
2026-05-05 16:02 53.17138 -48.76880 39734 ft 470 kts 255°
2026-05-05 16:02 53.15712 -48.87507 39733 ft 471 kts 255°
2026-05-05 16:03 53.14282 -48.98100 39737 ft 472 kts 255°
2026-05-05 16:03 53.12820 -49.08843 39739 ft 473 kts 254°
2026-05-05 16:04 53.11371 -49.19435 39715 ft 472 kts 255°
2026-05-05 16:04 53.09907 -49.30051 39712 ft 470 kts 254°
2026-05-05 16:05 53.08437 -49.40629 39722 ft 469 kts 254°
2026-05-05 16:05 53.06957 -49.51209 39714 ft 470 kts 255°
2026-05-05 16:06 53.05468 -49.61774 39689 ft 469 kts 255°
2026-05-05 16:06 53.03974 -49.72314 39708 ft 469 kts 255°
2026-05-05 16:07 53.02467 -49.82874 39702 ft 470 kts 254°
2026-05-05 16:07 53.00948 -49.93445 39682 ft 471 kts 254°
2026-05-05 16:08 52.99158 -50.03851 39672 ft 468 kts 247°
2026-05-05 16:08 52.96727 -50.13871 39670 ft 468 kts 246°
2026-05-05 16:09 52.94273 -50.23875 39687 ft 468 kts 246°
2026-05-05 16:09 52.91840 -50.33855 39671 ft 466 kts 246°
2026-05-05 16:10 52.89432 -50.43750 39663 ft 465 kts 246°
2026-05-05 16:10 52.87007 -50.53688 39657 ft 465 kts 247°
2026-05-05 16:11 52.84575 -50.63604 39661 ft 466 kts 246°
2026-05-05 16:12 52.79673 -50.83449 39659 ft 467 kts 246°
2026-05-05 16:13 52.73477 -51.08278 39643 ft 468 kts 246°
2026-05-05 16:13 52.70987 -51.18176 39645 ft 467 kts 246°
2026-05-05 16:14 52.65986 -51.37929 39642 ft 466 kts 246°
2026-05-05 16:15 52.60963 -51.57596 39633 ft 466 kts 246°
2026-05-05 16:16 52.55910 -51.77208 39623 ft 464 kts 246°
2026-05-05 16:17 52.52124 -51.91790 39625 ft 462 kts 246°
2026-05-05 16:18 52.48342 -52.06267 39623 ft 462 kts 246°
2026-05-05 16:19 52.44516 -52.20814 39609 ft 464 kts 246°
2026-05-05 16:19 52.40660 -52.35384 39613 ft 465 kts 246°
2026-05-05 16:20 52.35501 -52.54734 39611 ft 463 kts 245°
2026-05-05 16:22 52.29032 -52.78768 39619 ft 460 kts 246°
2026-05-05 16:23 52.23841 -52.97871 39618 ft 462 kts 245°
2026-05-05 16:23 52.19903 -53.12262 39622 ft 464 kts 245°
2026-05-05 16:24 52.17264 -53.21856 39615 ft 463 kts 245°
2026-05-05 16:25 52.13311 -53.36153 39612 ft 460 kts 245°
2026-05-05 16:25 52.09351 -53.50387 39608 ft 461 kts 245°
2026-05-05 16:26 52.04031 -53.69374 39610 ft 463 kts 245°
2026-05-05 16:27 52.01353 -53.78875 39609 ft 462 kts 245°
2026-05-05 16:27 51.98672 -53.88345 39610 ft 462 kts 245°
2026-05-05 16:28 51.95984 -53.97806 39613 ft 461 kts 245°
2026-05-05 16:28 51.93285 -54.07266 39615 ft 463 kts 245°
2026-05-05 16:29 51.90569 -54.16748 39618 ft 465 kts 245°
2026-05-05 16:29 51.87831 -54.26267 39606 ft 467 kts 245°
2026-05-05 16:30 51.85083 -54.35787 39610 ft 467 kts 245°
2026-05-05 16:30 51.82334 -54.45275 39610 ft 466 kts 245°
2026-05-05 16:31 51.79517 -54.54685 39619 ft 464 kts 241°
2026-05-05 16:31 51.76175 -54.63580 39616 ft 463 kts 239°
2026-05-05 16:32 51.72791 -54.72387 39614 ft 462 kts 239°
2026-05-05 16:32 51.69440 -54.81133 39618 ft 461 kts 239°
2026-05-05 16:33 51.66079 -54.89923 39618 ft 461 kts 239°
2026-05-05 16:33 51.62719 -54.98694 39623 ft 460 kts 239°
2026-05-05 16:34 51.59359 -55.07438 39624 ft 459 kts 239°
2026-05-05 16:34 51.55999 -55.16149 39623 ft 459 kts 238°
2026-05-05 16:35 51.52631 -55.24854 39615 ft 458 kts 238°
2026-05-05 16:35 51.49256 -55.33542 39603 ft 458 kts 238°
2026-05-05 16:36 51.45874 -55.42218 39607 ft 459 kts 238°
2026-05-05 16:36 51.42477 -55.50904 39612 ft 460 kts 238°
2026-05-05 16:37 51.39075 -55.59576 39613 ft 460 kts 238°
2026-05-05 16:37 51.35662 -55.68246 39599 ft 460 kts 238°
2026-05-05 16:38 51.32241 -55.76909 39604 ft 462 kts 238°
2026-05-05 16:38 51.28791 -55.85614 39607 ft 465 kts 238°
2026-05-05 16:39 51.25339 -55.94296 39601 ft 465 kts 238°
2026-05-05 16:39 51.21857 -56.03019 39600 ft 462 kts 238°
2026-05-05 16:40 51.18422 -56.11601 39604 ft 461 kts 239°
2026-05-05 16:40 51.14968 -56.20200 39613 ft 460 kts 239°
2026-05-05 16:41 51.11516 -56.28767 39609 ft 460 kts 239°
2026-05-05 16:41 51.08053 -56.37331 39610 ft 460 kts 239°
2026-05-05 16:42 51.04581 -56.45890 39608 ft 461 kts 239°
2026-05-05 16:42 51.01135 -56.54353 39604 ft 451 kts 238°
2026-05-05 16:43 50.97746 -56.62652 39614 ft 446 kts 238°
2026-05-05 16:43 50.94357 -56.70929 39622 ft 450 kts 238°
2026-05-05 16:44 50.91483 -56.77926 39624 ft 454 kts 238°
2026-05-05 16:44 50.88044 -56.86273 39621 ft 453 kts 238°
2026-05-05 16:45 50.84607 -56.94586 39621 ft 447 kts 238°
2026-05-05 16:45 50.81228 -57.02733 39637 ft 446 kts 238°
2026-05-05 16:46 50.77807 -57.10958 39649 ft 449 kts 238°
2026-05-05 16:46 50.74352 -57.19238 39630 ft 449 kts 238°
2026-05-05 16:47 50.70922 -57.27433 39664 ft 452 kts 238°
2026-05-05 16:47 50.67411 -57.35795 39673 ft 456 kts 237°
2026-05-05 16:48 50.63924 -57.44071 39686 ft 457 kts 237°
2026-05-05 16:48 50.60411 -57.52381 39683 ft 454 kts 238°
2026-05-05 16:49 50.56892 -57.60682 39711 ft 452 kts 238°
2026-05-05 16:49 50.53423 -57.68838 39712 ft 452 kts 238°
2026-05-05 16:50 50.49909 -57.77077 39733 ft 455 kts 238°
2026-05-05 16:50 50.46369 -57.85347 39741 ft 458 kts 237°
2026-05-05 16:51 50.42807 -57.93645 39736 ft 459 kts 238°
2026-05-05 16:51 50.39239 -58.01928 39746 ft 458 kts 238°
2026-05-05 16:52 50.35682 -58.10160 39749 ft 456 kts 238°
2026-05-05 16:52 50.32129 -58.18358 39756 ft 454 kts 237°
2026-05-05 16:53 50.28580 -58.26522 39761 ft 454 kts 238°
2026-05-05 16:53 50.25023 -58.34679 39765 ft 454 kts 238°
2026-05-05 16:54 50.21457 -58.42831 39771 ft 455 kts 238°
2026-05-05 16:54 50.17883 -58.50975 39768 ft 455 kts 237°
2026-05-05 16:55 50.14299 -58.59119 39779 ft 455 kts 237°
2026-05-05 16:55 50.10711 -58.67243 39761 ft 455 kts 237°
2026-05-05 16:56 50.07115 -58.75364 39777 ft 455 kts 237°
2026-05-05 16:56 50.03512 -58.83475 39780 ft 456 kts 237°
2026-05-05 16:57 49.99905 -58.91569 39802 ft 456 kts 237°
2026-05-05 16:57 49.96289 -58.99658 39781 ft 455 kts 237°
2026-05-05 16:58 49.92674 -59.07721 39786 ft 454 kts 237°
2026-05-05 16:58 49.89065 -59.15747 39792 ft 453 kts 237°
2026-05-05 16:59 49.85451 -59.23759 39793 ft 453 kts 237°
2026-05-05 16:59 49.81833 -59.31755 39800 ft 453 kts 237°
2026-05-05 17:00 49.78214 -59.39730 39794 ft 453 kts 237°
2026-05-05 17:00 49.74586 -59.47701 39809 ft 453 kts 237°
2026-05-05 17:01 49.70946 -59.55675 39808 ft 454 kts 237°
2026-05-05 17:01 49.67319 -59.63595 39801 ft 455 kts 237°
2026-05-05 17:02 49.63664 -59.71553 39786 ft 455 kts 237°
2026-05-05 17:02 49.60000 -59.79508 39798 ft 455 kts 237°
2026-05-05 17:03 49.56329 -59.87452 39803 ft 455 kts 237°
2026-05-05 17:03 49.52655 -59.95381 39811 ft 455 kts 237°
2026-05-05 17:04 49.48971 -60.03308 39811 ft 455 kts 237°
2026-05-05 17:04 49.45283 -60.11218 39806 ft 456 kts 236°
2026-05-05 17:05 49.41582 -60.19135 39802 ft 456 kts 236°
2026-05-05 17:05 49.37872 -60.27045 39811 ft 456 kts 236°
2026-05-05 17:06 49.34160 -60.34937 39814 ft 456 kts 236°
2026-05-05 17:06 49.30443 -60.42816 39808 ft 455 kts 236°
2026-05-05 17:07 49.26732 -60.50660 39815 ft 455 kts 236°
2026-05-05 17:07 49.23017 -60.58489 39814 ft 454 kts 236°
2026-05-05 17:08 49.19299 -60.66301 39820 ft 454 kts 236°
2026-05-05 17:08 49.15584 -60.74086 39823 ft 453 kts 236°
2026-05-05 17:09 49.11892 -60.81799 39820 ft 452 kts 236°
2026-05-05 17:09 49.08181 -60.89529 39824 ft 451 kts 236°
2026-05-05 17:10 49.04465 -60.97247 39816 ft 451 kts 236°
2026-05-05 17:10 49.00748 -61.04946 39814 ft 450 kts 236°
2026-05-05 17:11 48.97039 -61.12605 39819 ft 449 kts 236°
2026-05-05 17:11 48.93330 -61.20243 39830 ft 448 kts 236°
2026-05-05 17:12 48.89629 -61.27842 39819 ft 446 kts 236°
2026-05-05 17:12 48.85938 -61.35401 39809 ft 445 kts 236°
2026-05-05 17:13 48.82257 -61.42917 39812 ft 442 kts 236°
2026-05-05 17:13 48.78594 -61.50376 39814 ft 440 kts 236°
2026-05-05 17:14 48.74934 -61.57807 39819 ft 439 kts 236°
2026-05-05 17:14 48.71274 -61.65221 39820 ft 439 kts 236°
2026-05-05 17:15 48.67614 -61.72613 39820 ft 439 kts 236°
2026-05-05 17:15 48.63950 -61.79992 39821 ft 438 kts 236°
2026-05-05 17:16 48.60284 -61.87355 39812 ft 438 kts 236°
2026-05-05 17:16 48.56619 -61.94697 39811 ft 438 kts 236°
2026-05-05 17:17 48.52945 -62.02036 39801 ft 438 kts 236°
2026-05-05 17:17 48.49274 -62.09346 39806 ft 437 kts 236°
2026-05-05 17:18 48.45600 -62.16647 39814 ft 437 kts 236°
2026-05-05 17:18 48.41945 -62.23888 39812 ft 437 kts 236°
2026-05-05 17:19 48.38267 -62.31157 39802 ft 437 kts 235°
2026-05-05 17:19 48.34582 -62.38420 39796 ft 436 kts 235°
2026-05-05 17:20 48.30893 -62.45670 39803 ft 436 kts 235°
2026-05-05 17:20 48.27204 -62.52901 39803 ft 437 kts 235°
2026-05-05 17:21 48.23505 -62.60133 39800 ft 437 kts 235°
2026-05-05 17:22 48.17952 -62.70953 39787 ft 437 kts 235°
2026-05-05 17:22 48.14240 -62.78162 39792 ft 437 kts 235°
2026-05-05 17:23 48.10526 -62.85355 39788 ft 437 kts 234°
2026-05-05 17:23 48.06802 -62.92549 39793 ft 437 kts 234°
2026-05-05 17:24 48.03074 -62.99731 39792 ft 437 kts 234°
2026-05-05 17:24 47.99347 -63.06892 39778 ft 437 kts 234°
2026-05-05 17:25 47.95614 -63.14048 39782 ft 437 kts 234°
2026-05-05 17:25 47.91878 -63.21187 39780 ft 436 kts 234°
2026-05-05 17:26 47.88144 -63.28307 39775 ft 436 kts 234°
2026-05-05 17:26 47.84402 -63.35421 39777 ft 436 kts 234°
2026-05-05 17:27 47.80661 -63.42517 39778 ft 436 kts 234°
2026-05-05 17:27 47.76936 -63.49562 39764 ft 436 kts 234°
2026-05-05 17:28 47.73158 -63.56691 39747 ft 436 kts 234°
2026-05-05 17:28 47.69426 -63.63712 39758 ft 436 kts 234°
2026-05-05 17:29 47.65646 -63.70807 39765 ft 436 kts 234°
2026-05-05 17:29 47.61906 -63.77809 39765 ft 436 kts 234°
2026-05-05 17:30 47.58135 -63.84850 39743 ft 436 kts 234°
2026-05-05 17:30 47.54366 -63.91868 39758 ft 436 kts 234°
2026-05-05 17:31 47.51202 -63.97748 39759 ft 436 kts 234°
2026-05-05 17:31 47.47424 -64.04750 39774 ft 436 kts 234°
2026-05-05 17:32 47.43637 -64.11752 39758 ft 436 kts 233°
2026-05-05 17:32 47.39847 -64.18740 39760 ft 435 kts 233°
2026-05-05 17:33 47.36062 -64.25702 39766 ft 435 kts 233°
2026-05-05 17:33 47.32273 -64.32654 39747 ft 434 kts 233°
2026-05-05 17:34 47.28486 -64.39584 39746 ft 434 kts 233°
2026-05-05 17:34 47.24704 -64.46487 39749 ft 433 kts 233°
2026-05-05 17:35 47.20943 -64.53336 39760 ft 433 kts 233°
2026-05-05 17:35 47.17128 -64.60265 39760 ft 433 kts 233°
2026-05-05 17:36 47.13361 -64.67091 39747 ft 433 kts 233°
2026-05-05 17:36 47.09558 -64.73964 39735 ft 433 kts 233°
2026-05-05 17:37 47.05756 -64.80818 39738 ft 433 kts 233°
2026-05-05 17:37 47.01947 -64.87667 39750 ft 433 kts 233°
2026-05-05 17:38 46.98133 -64.94507 39745 ft 433 kts 233°
2026-05-05 17:38 46.94319 -65.01331 39735 ft 433 kts 233°
2026-05-05 17:39 46.90504 -65.08139 39744 ft 432 kts 233°
2026-05-05 17:39 46.86696 -65.14919 39749 ft 431 kts 233°
2026-05-05 17:40 46.82888 -65.21681 39766 ft 430 kts 233°
2026-05-05 17:40 46.79087 -65.28415 39756 ft 430 kts 233°
2026-05-05 17:41 46.75289 -65.35128 39755 ft 428 kts 233°
2026-05-05 17:41 46.71497 -65.41813 39753 ft 427 kts 233°
2026-05-05 17:42 46.67711 -65.48472 39762 ft 427 kts 232°
2026-05-05 17:42 46.63915 -65.55132 39765 ft 427 kts 232°
2026-05-05 17:43 46.60121 -65.61772 39753 ft 427 kts 233°
2026-05-05 17:43 46.56323 -65.68403 39784 ft 426 kts 232°
2026-05-05 17:44 46.52522 -65.75024 39775 ft 426 kts 232°
2026-05-05 17:44 46.48721 -65.81628 39762 ft 426 kts 232°
2026-05-05 17:45 46.44914 -65.88228 39777 ft 426 kts 232°
2026-05-05 17:45 46.41106 -65.94812 39779 ft 426 kts 232°
2026-05-05 17:46 46.37303 -66.01374 39778 ft 425 kts 232°
2026-05-05 17:46 46.33493 -66.07930 39768 ft 425 kts 232°
2026-05-05 17:47 46.29682 -66.14475 39781 ft 425 kts 232°
2026-05-05 17:47 46.25875 -66.20996 39783 ft 424 kts 232°
2026-05-05 17:48 46.22089 -66.27465 39766 ft 424 kts 232°
2026-05-05 17:48 46.18253 -66.34006 39771 ft 424 kts 232°
2026-05-05 17:49 46.14468 -66.40443 39762 ft 423 kts 232°
2026-05-05 17:49 46.10661 -66.46904 39784 ft 423 kts 232°
2026-05-05 17:50 46.06846 -66.53362 39777 ft 423 kts 232°
2026-05-05 17:50 46.03032 -66.59805 39768 ft 423 kts 232°
2026-05-05 17:51 45.99211 -66.66244 39760 ft 423 kts 232°
2026-05-05 17:51 45.95394 -66.72661 39772 ft 422 kts 232°
2026-05-05 17:52 45.91574 -66.79068 39777 ft 422 kts 232°
2026-05-05 17:52 45.87751 -66.85465 39777 ft 422 kts 232°
2026-05-05 17:53 45.83927 -66.91851 39757 ft 422 kts 232°
2026-05-05 17:53 45.80099 -66.98226 39771 ft 421 kts 232°
2026-05-05 17:54 45.76276 -67.04581 39789 ft 420 kts 232°
2026-05-05 17:54 45.72460 -67.10906 39780 ft 420 kts 232°
2026-05-05 17:55 45.68645 -67.17218 39787 ft 419 kts 232°
2026-05-05 17:55 45.64834 -67.23509 39778 ft 418 kts 232°
2026-05-05 17:56 45.61026 -67.29782 39783 ft 418 kts 232°
2026-05-05 17:56 45.57208 -67.36056 39784 ft 419 kts 232°
2026-05-05 17:57 45.53384 -67.42326 39787 ft 419 kts 232°
2026-05-05 17:57 45.49559 -67.48583 39796 ft 419 kts 232°
2026-05-05 17:58 45.45724 -67.54842 39789 ft 419 kts 232°
2026-05-05 17:58 45.41888 -67.61091 39790 ft 419 kts 231°
2026-05-05 17:59 45.38044 -67.67340 39795 ft 419 kts 231°
2026-05-05 17:59 45.34196 -67.73580 39791 ft 420 kts 231°
2026-05-05 18:00 45.30309 -67.79770 39803 ft 420 kts 231°
2026-05-05 18:00 45.26386 -67.85932 39818 ft 421 kts 231°
2026-05-05 18:01 45.22459 -67.92093 39816 ft 421 kts 231°
2026-05-05 18:01 45.18538 -67.98244 39805 ft 421 kts 231°
2026-05-05 18:02 45.14613 -68.04393 39818 ft 420 kts 231°
2026-05-05 18:02 45.10710 -68.10496 39817 ft 421 kts 230°
2026-05-05 18:03 45.06779 -68.16628 39820 ft 421 kts 230°
2026-05-05 18:03 45.02840 -68.22760 39805 ft 421 kts 230°
2026-05-05 18:04 44.98897 -68.28884 39818 ft 421 kts 230°
2026-05-05 18:04 44.94947 -68.35006 39821 ft 422 kts 230°
2026-05-05 18:05 44.90991 -68.41122 39823 ft 422 kts 230°
2026-05-05 18:05 44.87033 -68.47228 39799 ft 422 kts 230°
2026-05-05 18:06 44.83064 -68.53338 39806 ft 423 kts 230°
2026-05-05 18:06 44.79086 -68.59449 39783 ft 423 kts 230°
2026-05-05 18:07 44.75108 -68.65547 39786 ft 423 kts 230°
2026-05-05 18:07 44.71121 -68.71644 39795 ft 423 kts 230°
2026-05-05 18:08 44.67135 -68.77726 39791 ft 422 kts 230°
2026-05-05 18:08 44.63159 -68.83781 39792 ft 421 kts 230°
2026-05-05 18:09 44.59184 -68.89821 39786 ft 421 kts 230°
2026-05-05 18:09 44.55217 -68.95835 39790 ft 420 kts 230°
2026-05-05 18:10 44.51243 -69.01847 39806 ft 420 kts 230°
2026-05-05 18:10 44.47261 -69.07858 39821 ft 421 kts 230°
2026-05-05 18:11 44.43270 -69.13871 39816 ft 422 kts 230°
2026-05-05 18:11 44.39270 -69.19884 39817 ft 422 kts 230°
2026-05-05 18:12 44.35262 -69.25894 39809 ft 423 kts 230°
2026-05-05 18:12 44.31253 -69.31895 39815 ft 423 kts 230°
2026-05-05 18:13 44.27233 -69.37898 39821 ft 423 kts 229°
2026-05-05 18:13 44.23208 -69.43896 39826 ft 423 kts 229°
2026-05-05 18:14 44.19180 -69.49886 39837 ft 424 kts 229°
2026-05-05 18:14 44.15169 -69.55837 39834 ft 424 kts 229°
2026-05-05 18:15 44.11129 -69.61818 39822 ft 424 kts 229°
2026-05-05 18:15 44.07095 -69.67779 39833 ft 423 kts 229°
2026-05-05 18:16 44.03056 -69.73734 39835 ft 423 kts 229°
2026-05-05 18:16 43.99673 -69.78713 39833 ft 423 kts 229°
2026-05-05 18:17 43.95628 -69.84653 39817 ft 423 kts 229°
2026-05-05 18:17 43.91604 -69.90550 39831 ft 424 kts 229°
2026-05-05 18:18 43.87524 -69.96517 39835 ft 424 kts 229°
2026-05-05 18:18 43.83485 -70.02411 39833 ft 425 kts 229°
2026-05-05 18:19 43.79418 -70.08335 39829 ft 425 kts 229°
2026-05-05 18:19 43.75339 -70.14261 39812 ft 425 kts 229°
2026-05-05 18:20 43.71256 -70.20183 39804 ft 425 kts 229°
2026-05-05 18:20 43.67174 -70.26091 39804 ft 425 kts 229°
2026-05-05 18:21 43.63083 -70.31999 39842 ft 425 kts 229°
2026-05-05 18:21 43.58989 -70.37898 39810 ft 425 kts 228°
2026-05-05 18:22 43.54903 -70.43775 39805 ft 424 kts 228°
2026-05-05 18:22 43.50814 -70.49643 39796 ft 424 kts 228°
2026-05-05 18:23 43.46726 -70.55501 39794 ft 424 kts 228°
2026-05-05 18:23 43.42448 -70.61146 39782 ft 427 kts 217°
2026-05-05 18:23 43.39829 -70.62986 39772 ft 431 kts 203°
2026-05-05 18:24 43.36977 -70.64298 39788 ft 433 kts 202°
2026-05-05 18:24 43.31274 -70.66989 39783 ft 435 kts 203°
2026-05-05 18:25 43.25558 -70.69765 39789 ft 436 kts 204°
2026-05-05 18:25 43.19832 -70.72568 39788 ft 437 kts 204°
2026-05-05 18:26 43.14104 -70.75369 39794 ft 437 kts 204°
2026-05-05 18:26 43.08375 -70.78163 39792 ft 436 kts 204°
2026-05-05 18:27 43.02659 -70.80945 39786 ft 435 kts 204°
2026-05-05 18:27 42.96958 -70.83714 39782 ft 435 kts 203°
2026-05-05 18:28 42.88412 -70.87855 39823 ft 434 kts 203°
2026-05-05 18:28 42.82720 -70.90607 39833 ft 434 kts 203°
2026-05-05 18:29 42.77026 -70.93355 39815 ft 434 kts 203°
2026-05-05 18:29 42.71332 -70.96099 39831 ft 434 kts 203°
2026-05-05 18:30 42.65639 -70.98839 39842 ft 435 kts 203°
2026-05-05 18:30 42.59931 -71.01582 39828 ft 435 kts 203°
2026-05-05 18:31 42.54226 -71.04317 39842 ft 435 kts 203°
2026-05-05 18:31 42.48504 -71.07055 39861 ft 436 kts 203°
2026-05-05 18:32 42.42778 -71.09790 39845 ft 437 kts 203°
2026-05-05 18:32 42.37046 -71.12522 39858 ft 437 kts 203°
2026-05-05 18:33 42.31315 -71.15249 39865 ft 437 kts 203°
2026-05-05 18:33 42.25574 -71.17975 39848 ft 437 kts 203°
2026-05-05 18:34 42.19832 -71.20695 39871 ft 438 kts 203°
2026-05-05 18:34 42.14079 -71.23417 39884 ft 438 kts 203°
2026-05-05 18:35 42.08321 -71.26136 39894 ft 439 kts 203°
2026-05-05 18:35 42.02560 -71.28850 39890 ft 439 kts 202°
2026-05-05 18:36 41.96791 -71.31563 39898 ft 439 kts 202°
2026-05-05 18:36 41.91049 -71.34257 39720 ft 432 kts 202°
2026-05-05 18:37 41.88224 -71.35580 39282 ft 428 kts 202°
2026-05-05 18:37 41.85450 -71.36878 38636 ft 419 kts 202°
2026-05-05 18:37 41.82714 -71.38159 37669 ft 415 kts 202°
2026-05-05 18:37 41.79997 -71.39431 36647 ft 412 kts 202°
2026-05-05 18:38 41.77297 -71.40693 35681 ft 409 kts 202°
2026-05-05 18:38 41.74621 -71.41942 34824 ft 405 kts 202°
2026-05-05 18:38 41.72044 -71.43374 33978 ft 397 kts 213°
2026-05-05 18:38 41.69904 -71.45602 33099 ft 387 kts 224°
2026-05-05 18:39 41.67916 -71.47939 32663 ft 373 kts 223°
2026-05-05 18:39 41.65977 -71.50149 32237 ft 360 kts 222°
2026-05-05 18:39 41.64065 -71.52300 31850 ft 359 kts 222°
2026-05-05 18:39 41.62133 -71.54464 31466 ft 366 kts 222°
2026-05-05 18:40 41.60144 -71.56686 31067 ft 378 kts 222°
2026-05-05 18:40 41.58113 -71.58950 30650 ft 382 kts 223°
2026-05-05 18:40 41.56074 -71.61219 30212 ft 380 kts 223°
2026-05-05 18:40 41.54045 -71.63473 29763 ft 379 kts 223°
2026-05-05 18:41 41.52023 -71.65718 29273 ft 377 kts 222°
2026-05-05 18:41 41.50015 -71.67946 28809 ft 375 kts 222°
2026-05-05 18:41 41.48013 -71.70166 28370 ft 373 kts 222°
2026-05-05 18:41 41.46021 -71.72374 27913 ft 371 kts 222°
2026-05-05 18:42 41.44037 -71.74571 27455 ft 370 kts 222°
2026-05-05 18:42 41.42088 -71.76728 27007 ft 368 kts 222°
2026-05-05 18:42 41.40095 -71.78932 26562 ft 367 kts 222°
2026-05-05 18:42 41.38139 -71.81092 26130 ft 365 kts 222°
2026-05-05 18:43 41.36187 -71.83248 25693 ft 364 kts 222°
2026-05-05 18:43 41.34241 -71.85396 25253 ft 363 kts 222°
2026-05-05 18:43 41.32327 -71.87507 24830 ft 361 kts 221°
2026-05-05 18:43 41.30367 -71.89664 24396 ft 360 kts 221°
2026-05-05 18:44 41.28442 -71.91779 23956 ft 359 kts 222°
2026-05-05 18:44 41.26549 -71.93855 23575 ft 355 kts 222°
2026-05-05 18:44 41.24657 -71.95935 23141 ft 351 kts 222°
2026-05-05 18:44 41.22790 -71.97985 22742 ft 345 kts 222°
2026-05-05 18:45 41.20950 -72.00003 22364 ft 340 kts 222°
2026-05-05 18:45 41.19114 -72.02015 22025 ft 335 kts 222°
2026-05-05 18:45 41.17357 -72.03941 21674 ft 330 kts 222°
2026-05-05 18:45 41.15597 -72.05869 21321 ft 326 kts 222°
2026-05-05 18:46 41.13860 -72.07768 20998 ft 321 kts 222°
2026-05-05 18:46 41.12146 -72.09640 20659 ft 317 kts 222°
2026-05-05 18:46 41.10527 -72.11567 20318 ft 310 kts 232°
2026-05-05 18:46 41.09409 -72.13989 20005 ft 310 kts 248°
2026-05-05 18:47 41.08691 -72.16674 19690 ft 308 kts 252°
2026-05-05 18:47 41.08035 -72.19377 19368 ft 308 kts 252°
2026-05-05 18:47 41.07390 -72.22070 19063 ft 306 kts 252°
2026-05-05 18:47 41.06745 -72.24750 18761 ft 304 kts 252°
2026-05-05 18:48 41.06099 -72.27412 18468 ft 303 kts 252°
2026-05-05 18:48 41.05452 -72.30057 18128 ft 301 kts 252°
2026-05-05 18:48 41.04805 -72.32684 17776 ft 298 kts 252°
2026-05-05 18:48 41.04162 -72.35282 17440 ft 295 kts 252°
2026-05-05 18:49 41.03526 -72.37844 17108 ft 291 kts 252°
2026-05-05 18:49 41.02896 -72.40375 16813 ft 287 kts 252°
2026-05-05 18:49 41.02273 -72.42874 16509 ft 284 kts 252°
2026-05-05 18:49 41.01657 -72.45341 16216 ft 280 kts 252°
2026-05-05 18:50 41.01048 -72.47775 15928 ft 278 kts 252°
2026-05-05 18:50 41.00443 -72.50193 15642 ft 275 kts 252°
2026-05-05 18:50 40.99842 -72.52592 15352 ft 274 kts 252°
2026-05-05 18:50 40.99244 -72.54976 15067 ft 272 kts 253°
2026-05-05 18:51 40.98650 -72.57342 14777 ft 271 kts 253°
2026-05-05 18:51 40.98057 -72.59702 14499 ft 270 kts 253°
2026-05-05 18:51 40.97465 -72.62052 14241 ft 269 kts 253°
2026-05-05 18:51 40.96876 -72.64394 13943 ft 268 kts 253°
2026-05-05 18:52 40.96288 -72.66727 13642 ft 267 kts 253°
2026-05-05 18:52 40.95703 -72.69051 13328 ft 266 kts 253°
2026-05-05 18:52 40.95120 -72.71362 13032 ft 264 kts 252°
2026-05-05 18:52 40.94540 -72.73652 12754 ft 261 kts 252°
2026-05-05 18:53 40.93967 -72.75917 12486 ft 259 kts 252°
2026-05-05 18:53 40.93392 -72.78160 12188 ft 254 kts 250°
2026-05-05 18:53 40.92488 -72.80134 11942 ft 252 kts 232°
2026-05-05 18:53 40.91178 -72.81714 11754 ft 258 kts 223°
2026-05-05 18:54 40.89741 -72.83115 11536 ft 261 kts 220°
2026-05-05 18:54 40.88249 -72.84515 11217 ft 260 kts 220°
2026-05-05 18:54 40.86780 -72.85891 10883 ft 257 kts 220°
2026-05-05 18:54 40.85353 -72.87233 10571 ft 254 kts 220°
2026-05-05 18:55 40.83925 -72.88584 10285 ft 251 kts 220°
2026-05-05 18:55 40.82513 -72.89925 9980 ft 249 kts 220°
2026-05-05 18:55 40.81116 -72.91256 9640 ft 247 kts 220°
2026-05-05 18:55 40.79725 -72.92585 9251 ft 247 kts 220°
2026-05-05 18:56 40.78336 -72.93913 8888 ft 246 kts 220°
2026-05-05 18:56 40.76958 -72.95230 8533 ft 244 kts 219°
2026-05-05 18:56 40.75588 -72.96539 8173 ft 243 kts 219°
2026-05-05 18:56 40.74221 -72.97845 7834 ft 242 kts 219°
2026-05-05 18:57 40.72859 -72.99145 7482 ft 241 kts 219°
2026-05-05 18:57 40.71503 -73.00439 7152 ft 240 kts 218°
2026-05-05 18:57 40.70151 -73.01736 6957 ft 238 kts 220°
2026-05-05 18:57 40.69110 -73.03401 6611 ft 239 kts 243°
2026-05-05 18:58 40.68586 -73.05484 6339 ft 240 kts 257°
2026-05-05 18:58 40.68478 -73.07700 6017 ft 245 kts 265°
2026-05-05 18:58 40.68499 -73.09954 5683 ft 247 kts 266°
2026-05-05 18:58 40.68538 -73.12215 5392 ft 247 kts 266°
2026-05-05 18:59 40.68573 -73.14484 5111 ft 247 kts 266°
2026-05-05 18:59 40.68601 -73.16722 5062 ft 244 kts 266°
2026-05-05 18:59 40.68623 -73.18957 5003 ft 245 kts 265°
2026-05-05 18:59 40.68640 -73.21216 5000 ft 247 kts 265°
2026-05-05 19:00 40.68649 -73.22718 5003 ft 248 kts 265°
2026-05-05 19:00 40.68659 -73.24986 4998 ft 248 kts 265°
2026-05-05 19:00 40.68672 -73.27253 4994 ft 247 kts 265°
2026-05-05 19:00 40.68682 -73.29520 5002 ft 248 kts 265°
2026-05-05 19:01 40.68692 -73.31793 4996 ft 248 kts 266°
2026-05-05 19:01 40.68948 -73.34039 4799 ft 255 kts 282°
2026-05-05 19:01 40.69582 -73.36235 4534 ft 257 kts 286°
2026-05-05 19:01 40.70278 -73.38414 4172 ft 260 kts 287°
2026-05-05 19:02 40.70982 -73.40609 3869 ft 260 kts 287°
2026-05-05 19:02 40.71688 -73.42795 3610 ft 259 kts 287°
2026-05-05 19:02 40.72392 -73.44978 3335 ft 259 kts 287°
2026-05-05 19:02 40.73105 -73.47192 3059 ft 259 kts 287°
2026-05-05 19:03 40.73804 -73.49383 2753 ft 259 kts 287°
2026-05-05 19:03 40.74488 -73.51533 2564 ft 254 kts 288°
2026-05-05 19:03 40.75164 -73.53663 2514 ft 244 kts 287°
2026-05-05 19:03 40.75809 -73.55682 2488 ft 234 kts 287°
2026-05-05 19:04 40.76360 -73.57617 2286 ft 225 kts 276°
2026-05-05 19:04 40.76486 -73.59655 2170 ft 221 kts 266°
2026-05-05 19:04 40.76559 -73.61662 2126 ft 218 kts 267°
2026-05-05 19:04 40.76641 -73.63636 2074 ft 210 kts 265°
2026-05-05 19:05 40.76291 -73.65386 1980 ft 190 kts 231°
2026-05-05 19:05 40.75393 -73.66531 1878 ft 173 kts 217°
2026-05-05 19:05 40.74468 -73.67481 1837 ft 167 kts 215°
2026-05-05 19:05 40.73550 -73.68364 1848 ft 161 kts 213°
2026-05-05 19:06 40.72594 -73.69153 1811 ft 163 kts 211°
2026-05-05 19:06 40.71646 -73.69902 1615 ft 155 kts 209°
2026-05-05 19:06 40.70736 -73.70618 1402 ft 149 kts 208°
2026-05-05 19:06 40.69833 -73.71323 1230 ft 151 kts 209°
2026-05-05 19:07 40.68949 -73.72017 1023 ft 146 kts 208°
2026-05-05 19:07 40.68109 -73.72700 788 ft 134 kts 207°
2026-05-05 19:07 40.67369 -73.73268 644 ft 119 kts 207°
2026-05-05 19:07 40.66631 -73.73839 522 ft 122 kts 205°
2026-05-05 19:08 40.65943 -73.74376 367 ft 107 kts 205°
2026-05-05 19:08 40.65316 -73.74875 233 ft 105 kts 203°
2026-05-05 19:08 40.64677 -73.75368 112 ft 108 kts 204°
2026-05-05 19:08 40.64040 -73.75869 40 ft 98 kts 205°
2026-05-05 19:09 40.63547 -73.76250 27 ft 63 kts 211°
2026-05-05 19:09 40.63287 -73.76453 29 ft 34 kts 210°
2026-05-05 19:09 40.63103 -73.76603 28 ft 30 kts 216°
2026-05-05 19:09 40.62965 -73.76806 26 ft 30 kts 239°
2026-05-05 19:10 40.62940 -73.76991 32 ft 21 kts 296°
2026-05-05 19:10 40.63014 -73.77158 30 ft 21 kts 299°
2026-05-05 19:10 40.63089 -73.77323 32 ft 21 kts 301°
2026-05-05 19:10 40.63159 -73.77478 34 ft 13 kts 300°
2026-05-05 19:11 40.63201 -73.77571 34 ft 8 kts 301°
2026-05-05 19:11 40.63208 -73.77588 34 ft 0 kts 301°
2026-05-05 19:11 40.63209 -73.77588 34 ft 0 kts 301°
2026-05-05 19:11 40.63212 -73.77597 33 ft 5 kts 301°
2026-05-05 19:12 40.63258 -73.77697 32 ft 17 kts 300°
2026-05-05 19:12 40.63317 -73.77828 31 ft 17 kts 301°
2026-05-05 19:12 40.63375 -73.77960 28 ft 17 kts 299°
2026-05-05 19:12 40.63433 -73.78093 29 ft 17 kts 301°
2026-05-05 19:13 40.63492 -73.78224 29 ft 17 kts 301°
2026-05-05 19:13 40.63552 -73.78355 31 ft 17 kts 301°
2026-05-05 19:13 40.63618 -73.78502 34 ft 21 kts 301°
2026-05-05 19:13 40.63703 -73.78690 33 ft 26 kts 301°
2026-05-05 19:14 40.63798 -73.78898 29 ft 27 kts 300°
2026-05-05 19:14 40.63892 -73.79105 27 ft 27 kts 301°
2026-05-05 19:14 40.63986 -73.79313 31 ft 27 kts 300°
2026-05-05 19:14 40.64045 -73.79443 27 ft 14 kts 300°
2026-05-05 19:15 40.64124 -73.79508 28 ft 14 kts 356°
2026-05-05 19:15 40.64222 -73.79502 29 ft 14 kts
2026-05-05 19:15 40.64320 -73.79494 29 ft 14 kts
2026-05-05 19:15 40.64418 -73.79493 29 ft 14 kts 355°
2026-05-05 19:16 40.64515 -73.79503 29 ft 14 kts 355°
2026-05-05 19:16 40.64610 -73.79535 28 ft 14 kts 332°
2026-05-05 19:16 40.64687 -73.79605 28 ft 10 kts 325°
2026-05-05 19:16 40.64742 -73.79620 28 ft 8 kts 41°
2026-05-05 19:17 40.64771 -73.79557 28 ft 8 kts 61°
2026-05-05 19:17 40.64802 -73.79483 28 ft 11 kts 61°
2026-05-05 19:17 40.64831 -73.79410 28 ft 7 kts 73°
2026-05-05 19:17 40.64816 -73.79376 28 ft 4 kts 136°
2026-05-05 19:18 40.64794 -73.79357 28 ft 4 kts 151°
2026-05-05 19:18 40.64791 -73.79355 28 ft 0 kts 151°
2026-05-05 19:18 40.64778 -73.79345 28 ft 0 kts 152°